Weather History for Crossville, TN

Change the Weather History Date:

Wednesday, December 21, 2011

  Actual Average Record
Temperature  
Mean Temperature 53 °F 37 °F  
Max Temperature 60 °F 46 °F 67 °F (1956)
Min Temperature 45 °F 29 °F 0 °F (1989)
Degree Days  
Heating Degree Days 12    
Month to date heating degree days 433  
Since 1 July heating degree days 1266  
Cooling Degree Days 0    
Month to date cooling degree days 0  
Year to date cooling degree days 1189  
Growing Degree Days 3 (Base 50)    
Moisture  
Dew Point 51 °F    
Average Humidity 77    
Maximum Humidity 93    
Minimum Humidity 61    
Precipitation  
Precipitation 0.62 in 0.15 in 1.53 in (1967)
Month to date precipitation 3.29 3.49  
Year to date precipitation 62.22 53.63  
Sea Level Pressure  
Sea Level Pressure 29.92 in    
Wind  
Wind Speed 7 mph (SW)    
Max Wind Speed 21 mph    
Max Gust Speed 32 mph    
Visibility 7 miles    
Events Fog , Rain    
T = Trace of Precipitation, MM = Missing Value Source: NWS Daily Summary

Daily Weather History Graph

Daily Weather History Graph

Search for Another Location

Airport:

Trip Planner

Search our weather history database for the weather conditions in past years. The results will help you decide how hot, cold, wet, or windy it might be!

Date:

Astronomy

Dec. 21, 2011 Rise Set
Actual Time 6:46 AM CST 4:29 PM CST
Civil Twilight 6:18 AM CST 4:58 PM CST
Nautical Twilight 5:46 AM CST 5:30 PM CST
Astronomical Twilight 5:14 AM CST 6:01 PM CST
Moon 3:21 AM CST (12/21) 1:47 PM CST (12/21)
Length of Visible Light 10h 40m
Length of Day
9h 43m
Waning Crescent, 12% of the Moon is Illuminated
Dec 21
Waning Crescent
Dec 24
New
Jan 1
First Quarter
Jan 9
Full
Jan 16
Last Quarter

Hourly Weather History & Observations

Time (CST) Temp. Windchill Dew Point Humidity Pressure Visibility Wind Dir Wind Speed Gust Speed Precip Events Conditions
12:30 AM 55.4 °F - 53.6 °F 94% 29.94 in 8.0 mi South 15.0 mph 27.6 mph 0.01 in   Overcast
12:53 AM 55.9 °F - 53.1 °F 90% 29.94 in 10.0 mi South 15.0 mph 27.6 mph 0.01 in   Overcast
1:29 AM 55.4 °F - 53.6 °F 94% 29.94 in 10.0 mi South 10.4 mph 26.5 mph N/A   Overcast
1:53 AM 57.0 °F - 53.1 °F 87% 29.91 in 10.0 mi South 12.7 mph 21.9 mph N/A   Overcast
2:22 AM 57.2 °F - 53.6 °F 88% 29.93 in 10.0 mi South 13.8 mph 23.0 mph 0.00 in Rain Light Rain
2:29 AM 57.2 °F - 53.6 °F 88% 29.93 in 10.0 mi South 13.8 mph 23.0 mph 0.00 in Rain Light Rain
2:53 AM 57.0 °F - 53.1 °F 87% 29.90 in 10.0 mi South 8.1 mph 20.7 mph 0.00 in   Overcast
3:53 AM 57.0 °F - 54.0 °F 89% 29.87 in 10.0 mi South 11.5 mph 21.9 mph 0.02 in   Overcast
4:43 AM 57.2 °F - 53.6 °F 88% 29.89 in 6.0 mi South 10.4 mph 27.6 mph 0.00 in Rain Light Rain
4:53 AM 57.0 °F - 54.0 °F 89% 29.87 in 5.0 mi South 9.2 mph 20.7 mph 0.00 in Rain Light Rain
5:53 AM 57.0 °F - 54.0 °F 89% 29.87 in 3.0 mi South 11.5 mph 19.6 mph 0.06 in Rain Rain
6:53 AM 57.0 °F - 54.0 °F 89% 29.85 in 10.0 mi South 9.2 mph 24.2 mph 0.04 in   Overcast
7:53 AM 57.9 °F - 55.9 °F 93% 29.85 in 7.0 mi South 10.4 mph 25.3 mph 0.01 in Rain Light Rain
8:43 AM 59.0 °F - 55.4 °F 88% 29.89 in 1.8 mi SW 8.1 mph 24.2 mph 0.08 in Rain Rain
8:47 AM 59.0 °F - 57.2 °F 94% 29.90 in 0.5 mi West 6.9 mph 18.4 mph 0.17 in Fog , Rain Heavy Rain
8:53 AM 59.0 °F - 57.0 °F 93% 29.87 in 0.5 mi WSW 6.9 mph 18.4 mph 0.23 in Fog , Rain Heavy Rain
8:58 AM 59.0 °F - 57.2 °F 94% 29.89 in 1.2 mi Variable 6.9 mph - 0.00 in Rain Light Rain
9:01 AM 59.0 °F - 57.2 °F 94% 29.89 in 2.5 mi SSW 4.6 mph - 0.01 in Rain Rain
9:12 AM 59.0 °F - 57.2 °F 94% 29.91 in 0.8 mi WSW 5.8 mph - 0.12 in Rain Heavy Rain
9:19 AM 59.0 °F - 57.2 °F 94% 29.91 in 0.5 mi SW 4.6 mph - 0.17 in Fog , Rain Rain
9:23 AM 59.0 °F - 57.2 °F 94% 29.91 in 1.0 mi Variable 6.9 mph - 0.17 in Rain Rain
9:28 AM 60.8 °F - 57.2 °F 88% 29.91 in 3.0 mi WSW 8.1 mph - 0.18 in Rain Light Rain
9:47 AM 57.2 °F - 53.6 °F 88% 29.93 in 1.8 mi West 15.0 mph 28.8 mph 0.23 in Rain Heavy Rain
9:53 AM 57.0 °F - 53.1 °F 87% 29.91 in 2.0 mi West 11.5 mph 24.2 mph 0.23 in Rain Light Rain
10:01 AM 55.4 °F - 53.6 °F 94% 29.94 in 5.0 mi West 16.1 mph 25.3 mph 0.01 in Rain Light Rain
10:13 AM 55.4 °F - 51.8 °F 88% 29.94 in 10.0 mi WSW 9.2 mph 27.6 mph 0.01 in Rain Light Rain
10:40 AM 55.4 °F - 50.0 °F 82% 29.93 in 8.0 mi WSW 11.5 mph 21.9 mph 0.03 in Rain Light Rain
10:53 AM 55.9 °F - 51.1 °F 84% 29.91 in 10.0 mi WSW 8.1 mph 19.6 mph 0.03 in   Overcast
11:53 AM 57.9 °F - 51.1 °F 78% 29.88 in 10.0 mi SW 10.4 mph 18.4 mph N/A   Clear
12:53 PM 57.2 °F - 48.2 °F 72% 29.90 in 10.0 mi WSW 9.2 mph 20.7 mph N/A   Clear
1:53 PM 57.9 °F - 45.0 °F 62% 29.87 in 10.0 mi Variable 6.9 mph 21.9 mph N/A   Clear
2:53 PM 55.9 °F - 45.0 °F 67% 29.90 in 10.0 mi West 5.8 mph - N/A   Clear
3:53 PM 55.0 °F - 42.1 °F 62% 29.93 in 10.0 mi SW 6.9 mph - N/A   Clear
4:53 PM 52.0 °F - 42.1 °F 69% 29.94 in 10.0 mi West 3.5 mph - N/A   Clear
5:53 PM 51.1 °F - 41.0 °F 68% 29.96 in 10.0 mi Calm Calm - N/A   Clear
6:53 PM 51.1 °F - 42.1 °F 71% 29.97 in 10.0 mi SW 3.5 mph - N/A   Clear
7:53 PM 50.0 °F - 42.1 °F 74% 30.00 in 10.0 mi Calm Calm - N/A   Clear
8:53 PM 48.9 °F - 41.0 °F 74% 30.01 in 10.0 mi SW 3.5 mph - N/A   Clear
9:53 PM 48.9 °F - 41.0 °F 74% 30.01 in 10.0 mi Calm Calm - N/A   Clear
10:53 PM 46.0 °F 43.9 °F 42.1 °F 86% 30.01 in 10.0 mi West 4.6 mph - N/A   Clear
11:53 PM 46.0 °F - 42.1 °F 86% 30.00 in 10.0 mi Calm Calm - N/A   Clear